ATLAS 5 CENTAUR DEB, 43970

Orbit data source: Space-Track

ATLAS 5 CENTAUR DEB, 43970 is space debris in HEO originally from a launch on Wed, 17 Sep 2014 UTC launched from the Air Force Eastern Test Range (AFETR). Debris objects in space refer to the collection of defunct objects orbiting the Earth. Examples of debris include non-operational satellites, rocket bodies, and fragments generated from explosions, collisions, or faulty payload assembly.

Loading next visibility...
Identifier
43970, 2014-055Z
Orbit
HEO
Country
Flag of USUS
Related business
Flag of USUnited Launch Alliance/Lockheed Martin (US)
Manufacturer
Unknown
Mission
Spacecraft
Bus & Motor
Unknown
Mass
Unknown
Launch date (UTC)
2014-09-17 (12 years ago)
Launch vehicle
Unknown
Launch site
Air Force Eastern Test Range (AFETR)
Object type
Payload
Rocket body
Debris
Shape & HBR
Unknown shape, 1.1 m
Radar Cross Section
Medium (>0.1 m² and <1 m²)

Expand to show TLE details & history
Last TLE update: 1 week ago

TLE from 1 week ago
0 ATLAS 5 CENTAUR DEB
1 43970U 14055Z   26227.93669681 -.00000132  00000-0  00000-0 0  9992
2 43970  20.6493 121.4011 4747947 207.0706 117.2127  1.90354222 55316
Epoch: 2026-08-15T22:28Z
TLE epoch observation values (Epoch: 2026-08-15T22:28:50.604Z)
Latitude
0.00005°
Longitude
179.9026°
Altitude
30,550.276 km
Speed
2.664 km/s
True Right ascension
08h 05m 48s
True Declination
0° 00' 00"
Sunlit
Object was in daylight at epoch
Visualization orbit readout
Latitude
Unknown
Longitude
Unknown
Altitude
Unknown
Speed
Unknown
Apparent Right ascension
Unknown
Apparent Declination
Unknown
Sunlit
N/A
Visualization observer readout
Local Sidereal Time
00:15:18
Azimuth
Unknown
Elevation
Unknown
Doppler factor
Unknown
Orbital elements
Apogee altitude
34,184.126 km
Perigee altitude
8,066.935 km
Semi-major axis
27,503.667 km
Eccentricity
0.47479
Inclination
20.6493°
RAAN
121.4011°
Arg. of periapsis
207.0706°
True anomaly
152.94248°
Mean anomaly
117.2127°
Eccentric anomaly
136.08198°
Mean motion
0.47584 °/min
Orbital period
756.56 mins
BSTAR
0
Loading maneuver chart data...
Computing Atmospheric mass density...

Documentation

Showing up to 5 results
|